Weather History for KMNM - September, 2014

Change the Weather History Date:

Wednesday, September 3, 2014

  Actual Average Record
Temperature  
Mean Temperature 65 °F -  
Max Temperature 77 °F 75 °F 95 °F (1953)
Min Temperature 53 °F 53 °F 34 °F (1974)
Growing Degree Days 15 (Base 50)    
Moisture  
Dew Point 58 °F    
Average Humidity 75    
Maximum Humidity 94    
Minimum Humidity 57    
Precipitation  
Precipitation 0.00 in - - ()
Sea Level Pressure  
Sea Level Pressure 29.92 in    
Wind  
Wind Speed 4 mph (SW)    
Max Wind Speed 12 mph    
Max Gust Speed 16 mph    
Visibility 10 miles    
Events      
Averages and records for this station are not official NWS values.
T = Trace of Precipitation, MM = Missing Value Source: NWS Daily Summary

Daily Weather History Graph

Daily Weather History Graph

Search for Another Location

Airport or City:

Trip Planner

Search our weather history database for the weather conditions in past years. The results will help you decide how hot, cold, wet, or windy it might be!

Date:

Astronomy

Sep. 03, 2014 Rise Set
Actual Time 6:14 AM CDT 7:24 PM CDT
Civil Twilight 5:44 AM CDT 7:54 PM CDT
Nautical Twilight 5:08 AM CDT 8:30 PM CDT
Astronomical Twilight 4:29 AM CDT 9:08 PM CDT
Moon 3:14 PM CDT (9/3) 12:00 AM CDT (9/3)
Length of Visible Light 14h 09m
Length of Day
13h 09m
Waxing Gibbous, 64% of the Moon is Illuminated
Sep 3
Waxing Gibbous
Sep 8
Full
Sep 15
Last Quarter
Sep 24
New
Oct 1
First Quarter

Hourly Weather History & Observations

Time (CDT) Temp. Dew Point Humidity Pressure Visibility Wind Dir Wind Speed Gust Speed Precip Events Conditions
12:15 AM 57.2 °F 55.4 °F 94% 29.88 in 10.0 mi Calm Calm - N/A   Clear
12:35 AM 57.2 °F 53.6 °F 88% 29.88 in 2.5 mi Calm Calm - N/A   Clear
12:55 AM 57.2 °F 53.6 °F 88% 29.90 in 6.0 mi North 6.9 mph - N/A   Clear
1:15 AM 57.2 °F 55.4 °F 94% 29.91 in 10.0 mi Calm Calm - N/A   Clear
1:35 AM 57.2 °F 53.6 °F 88% 29.91 in 10.0 mi WSW 3.5 mph - N/A   Clear
1:55 AM 55.4 °F 53.6 °F 94% 29.91 in 9.0 mi Calm Calm - N/A   Clear
2:15 AM 57.2 °F 53.6 °F 88% 29.92 in 10.0 mi WSW 3.5 mph - N/A   Clear
2:35 AM 55.4 °F 53.6 °F 94% 29.92 in 10.0 mi West 3.5 mph - N/A   Clear
2:55 AM 55.4 °F 53.6 °F 94% 29.93 in 10.0 mi Calm Calm - N/A   Clear
3:15 AM 53.6 °F 51.8 °F 94% 29.93 in 1.8 mi Calm Calm - N/A   Clear
3:35 AM 53.6 °F 51.8 °F 94% 29.93 in 1.5 mi Calm Calm - N/A   Clear
3:55 AM 53.6 °F 51.8 °F 94% 29.93 in 3.0 mi Calm Calm - N/A   Clear
4:15 AM 55.4 °F 51.8 °F 88% 29.93 in 8.0 mi West 3.5 mph - N/A   Clear
4:35 AM 55.4 °F 51.8 °F 88% 29.93 in 10.0 mi Calm Calm - N/A   Clear
4:55 AM 55.4 °F 51.8 °F 88% 29.93 in 10.0 mi West 3.5 mph - N/A   Clear
5:15 AM 55.4 °F 51.8 °F 88% 29.94 in 10.0 mi West 4.6 mph - N/A   Clear
5:35 AM 55.4 °F 53.6 °F 94% 29.93 in 10.0 mi West 3.5 mph - N/A   Clear
5:55 AM 57.2 °F 53.6 °F 88% 29.94 in 10.0 mi West 4.6 mph - N/A   Clear
6:15 AM 55.4 °F 53.6 °F 94% 29.94 in 10.0 mi West 4.6 mph - N/A   Clear
6:35 AM 57.2 °F 53.6 °F 88% 29.94 in 10.0 mi West 3.5 mph - N/A   Clear
6:55 AM 57.2 °F 53.6 °F 88% 29.95 in 10.0 mi Calm Calm - N/A   Clear
7:15 AM 57.2 °F 53.6 °F 88% 29.95 in 10.0 mi Calm Calm - N/A   Clear
7:35 AM 59.0 °F 55.4 °F 88% 29.95 in 10.0 mi Calm Calm - N/A   Clear
7:55 AM 60.8 °F 55.4 °F 82% 29.95 in 10.0 mi SW 5.8 mph - N/A   Clear
8:15 AM 60.8 °F 57.2 °F 88% 29.96 in 10.0 mi SW 5.8 mph - N/A   Clear
8:35 AM 62.6 °F 57.2 °F 82% 29.95 in 10.0 mi WSW 5.8 mph - N/A   Clear
8:55 AM 64.4 °F 59.0 °F 83% 29.95 in 10.0 mi SW 8.1 mph - N/A   Clear
9:15 AM 66.2 °F 60.8 °F 83% 29.95 in 10.0 mi SW 5.8 mph - N/A   Clear
9:35 AM 66.2 °F 60.8 °F 83% 29.95 in 10.0 mi SW 6.9 mph - N/A   Clear
9:55 AM 69.8 °F 60.8 °F 73% 29.95 in 10.0 mi SW 5.8 mph - N/A   Clear
10:15 AM 71.6 °F 60.8 °F 69% 29.95 in 10.0 mi WSW 6.9 mph - N/A   Clear
10:35 AM 71.6 °F 60.8 °F 69% 29.95 in 10.0 mi WSW 8.1 mph - N/A   Clear
10:55 AM 71.6 °F 60.8 °F 69% 29.95 in 10.0 mi WSW 5.8 mph - N/A   Clear
11:15 AM 73.4 °F 60.8 °F 65% 29.95 in 10.0 mi SW 9.2 mph - N/A   Clear
11:35 AM 73.4 °F 60.8 °F 65% 29.96 in 10.0 mi WSW 8.1 mph - N/A   Clear
11:55 AM 73.4 °F 60.8 °F 65% 29.96 in 10.0 mi West 6.9 mph - N/A   Clear
12:15 PM 73.4 °F 60.8 °F 65% 29.95 in 10.0 mi West 5.8 mph - N/A   Clear
12:35 PM 75.2 °F 60.8 °F 61% 29.95 in 10.0 mi WSW 6.9 mph - N/A   Clear
12:55 PM 75.2 °F 60.8 °F 61% 29.94 in 10.0 mi SW 8.1 mph - N/A   Clear
1:15 PM 75.2 °F 60.8 °F 61% 29.94 in 10.0 mi SW 6.9 mph - N/A   Clear
1:35 PM 75.2 °F 62.6 °F 65% 29.94 in 10.0 mi WSW 9.2 mph - N/A   Clear
1:55 PM 75.2 °F 60.8 °F 61% 29.94 in 10.0 mi WSW 10.4 mph - N/A   Clear
2:15 PM 75.2 °F 60.8 °F 61% 29.93 in 10.0 mi WSW 8.1 mph 16.1 mph N/A   Clear
2:35 PM 75.2 °F 60.8 °F 61% 29.93 in 10.0 mi West 4.6 mph - N/A   Clear
2:55 PM 75.2 °F 62.6 °F 65% 29.93 in 10.0 mi WSW 5.8 mph - N/A   Partly Cloudy
3:15 PM 77.0 °F 62.6 °F 61% 29.92 in 10.0 mi South 8.1 mph - N/A   Partly Cloudy
3:35 PM 77.0 °F 62.6 °F 61% 29.91 in 10.0 mi SSW 10.4 mph - N/A   Clear
3:55 PM 75.2 °F 62.6 °F 65% 29.91 in 10.0 mi SW 9.2 mph - N/A   Clear
4:15 PM 77.0 °F 60.8 °F 57% 29.91 in 10.0 mi SW 9.2 mph - N/A   Clear
4:35 PM 75.2 °F 60.8 °F 61% 29.91 in 10.0 mi SSW 9.2 mph - N/A   Clear
4:55 PM 75.2 °F 59.0 °F 57% 29.90 in 10.0 mi SSW 6.9 mph - N/A   Partly Cloudy
5:15 PM 75.2 °F 59.0 °F 57% 29.90 in 10.0 mi SSW 4.6 mph - N/A   Partly Cloudy
5:35 PM 75.2 °F 59.0 °F 57% 29.91 in 10.0 mi SW 6.9 mph - N/A   Clear
5:55 PM 73.4 °F 59.0 °F 61% 29.89 in 10.0 mi South 6.9 mph - N/A   Scattered Clouds
6:15 PM 73.4 °F 59.0 °F 61% 29.89 in 10.0 mi SSW 3.5 mph - N/A   Partly Cloudy
6:35 PM 73.4 °F 59.0 °F 61% 29.89 in 10.0 mi Calm Calm - N/A   Clear
6:55 PM 71.6 °F 62.6 °F 73% 29.88 in 10.0 mi South 11.5 mph - N/A   Clear
7:15 PM 71.6 °F 60.8 °F 69% 29.88 in 10.0 mi South 10.4 mph - N/A   Clear
7:35 PM 71.6 °F 60.8 °F 69% 29.89 in 10.0 mi South 9.2 mph - N/A   Clear
7:55 PM 69.8 °F 60.8 °F 73% 29.88 in 10.0 mi South 9.2 mph - N/A   Scattered Clouds
8:15 PM 69.8 °F 60.8 °F 73% 29.88 in 10.0 mi South 10.4 mph - N/A   Partly Cloudy
8:35 PM 69.8 °F 60.8 °F 73% 29.89 in 10.0 mi South 9.2 mph - N/A   Clear
8:55 PM 69.8 °F 59.0 °F 68% 29.89 in 10.0 mi South 9.2 mph - N/A   Clear
9:15 PM 68.0 °F 59.0 °F 73% 29.89 in 10.0 mi South 9.2 mph - N/A   Clear
9:35 PM 68.0 °F 57.2 °F 68% 29.88 in 10.0 mi South 9.2 mph - N/A   Clear
9:55 PM 68.0 °F 57.2 °F 68% 29.88 in 10.0 mi South 5.8 mph - N/A   Clear
10:15 PM 68.0 °F 57.2 °F 68% 29.88 in 10.0 mi South 6.9 mph - N/A   Clear
10:55 PM 68.0 °F 57.2 °F 68% 29.87 in 10.0 mi South 6.9 mph - N/A   Scattered Clouds
11:15 PM 68.0 °F 57.2 °F 68% 29.89 in 10.0 mi SSW 4.6 mph - N/A   Mostly Cloudy
11:35 PM 68.0 °F 57.2 °F 68% 29.87 in 10.0 mi South 5.8 mph - N/A   Partly Cloudy
11:55 PM 68.0 °F 57.2 °F 68% 29.87 in 10.0 mi South 8.1 mph - N/A   Partly Cloudy